Zurück zum Katalog

STARLINK-34850

AktivKommunikationVLEO
NORAD 65460·PAYLOAD·🇺🇸 United States

Gestartet Sep 3, 2025 von Cape Canaveral Space Force Station

Loading…

Nächste Überflüge (nächste 24 Stunden)

TLE

AktuellSource: CelesTrak SupGP

Epoche: Sep 14, 2026, 20:59 UTC

1 65460C 25195C   26257.87479167 -.00049824  00000+0 -14723-2 0  2578
2 65460  53.1578  95.8179 0001240  87.3020 135.1874 15.34409225    13

Verfolge STARLINK-34850 in Echtzeit mit AllMySat

Download on the App Store